Location: Lafig�re
(44.4503°N, 4.0357°E)
Time: 07:05:51
(UTC+00:00)

Cosmos 1092 Rocket - Pass Details

Date: 28 January 2021
Orbit: 954 x 994 km, 83.0° (Epoch: 08 March)

Event Time Altitude Azimuth Distance (km) Brightness Sun altitude
Rises 18:26:50 0° 204° (SSW) 3,642 7.5 -17.7°
Reaches altitude 10° 18:29:27 10° 210° (SSW) 2,694 6.8 -18.2°
Maximum altitude 18:35:21 47° 284° (WNW) 1,253 5.0 -19.2°
Drops below altitude 10° 18:41:16 10° 357° (N) 2,695 6.3 -20.3°
Sets 18:43:53 0° 4° (N) 3,644 6.9 -20.8°
